| time (UTC) | temp F | wind direction | speed MPH | gust MPH | rain 1hr in | rain 24hr in | rain mn in | humidity % | barometer mb |
| 20260901110010 | 66 | 255 | 0.0 | 0.0 | 0.00 | 0.10 | 0.01 | 100 | 1012.3 |
| 20260901104508 | 66 | 255 | 0.0 | 0.0 | 0.00 | 0.15 | 0.01 | 100 | 1012.4 |
| 20260901103043 | 66 | 255 | 0.0 | 0.0 | 0.00 | 0.15 | 0.01 | 100 | 1012.2 |
| 20260901101540 | 66 | 255 | 0.0 | 0.0 | 0.00 | 0.15 | 0.01 | 100 | 1012.2 |
| 20260901100017 | 66 | 255 | 0.0 | 0.0 | 0.00 | 0.15 | 0.01 | 100 | 1012.2 |
| 20260901094514 | 66 | 255 | 0.0 | 0.0 | 0.00 | 0.28 | 0.01 | 100 | 1012.3 |
| 20260901093101 | 66 | 255 | 0.0 | 0.0 | 0.00 | 0.28 | 0.01 | 100 | 1012.2 |
| 20260901091553 | 66 | 255 | 0.0 | 0.0 | 0.00 | 0.28 | 0.01 | 100 | 1012.1 |
| 20260901090051 | 66 | 255 | 0.0 | 0.0 | 0.00 | 0.28 | 0.01 | 100 | 1012.2 |
| 20260901084550 | 66 | 255 | 0.0 | 0.0 | 0.00 | 0.28 | 0.01 | 100 | 1012.1 |
| 20260901083040 | 67 | 255 | 0.0 | 0.0 | 0.00 | 0.28 | 0.01 | 100 | 1012.2 |
| 20260901081536 | 67 | 255 | 0.0 | 0.0 | 0.00 | 0.28 | 0.01 | 100 | 1011.8 |
| 20260901080031 | 67 | 255 | 0.0 | 0.0 | 0.00 | 0.28 | 0.01 | 100 | 1011.8 |
| 20260901074527 | 67 | 255 | 0.0 | 0.0 | 0.00 | 0.28 | 0.01 | 100 | 1011.8 |
| 20260901073022 | 67 | 255 | 0.0 | 0.0 | 0.00 | 0.28 | 0.01 | 100 | 1011.6 |
| 20260901071506 | 67 | 255 | 0.0 | 0.0 | 0.00 | 0.28 | 0.01 | 100 | 1011.7 |
| 20260901070001 | 67 | 255 | 0.0 | 0.0 | 0.00 | 0.28 | 0.01 | 100 | 1011.7 |
| 20260901064557 | 67 | 255 | 0.0 | 0.0 | 0.00 | 0.28 | 0.01 | 100 | 1011.5 |
| 20260901063054 | 68 | 255 | 0.0 | 0.0 | 0.00 | 0.28 | 0.01 | 100 | 1011.4 |
| 20260901061549 | 68 | 255 | 0.0 | 0.0 | 0.00 | 0.28 | 0.01 | 100 | 1011.5 |
| 20260901060044 | 69 | 255 | 0.0 | 0.0 | 0.00 | 0.28 | 0.01 | 100 | 1011.4 |
| 20260901054539 | 69 | 255 | 0.0 | 0.0 | 0.00 | 0.28 | 0.01 | 100 | 1011.4 |
| 20260901053039 | 70 | 255 | 0.0 | 0.0 | 0.00 | 0.28 | 0.01 | 100 | 1011.5 |
| 20260901051520 | 70 | 255 | 0.0 | 0.0 | 0.00 | 0.28 | 0.01 | 100 | 1011.5 |
| 20260901050014 | 70 | 255 | 0.0 | 0.0 | 0.00 | 0.28 | 0.01 | 100 | 1011.5 |
| 20260901044522 | 71 | 255 | 0.0 | 0.0 | 0.00 | 0.28 | 0.01 | 100 | 1011.5 |
| 20260901043005 | 71 | 255 | 0.0 | 0.0 | 0.00 | 0.28 | 0.01 | 100 | 1011.6 |
| 20260901041500 | 71 | 255 | 0.0 | 0.0 | 0.00 | 0.28 | 0.01 | 100 | 1011.7 |
| 20260901040057 | 71 | 255 | 0.0 | 0.0 | 0.00 | 0.28 | 0.01 | 100 | 1011.8 |
| 20260901034552 | 71 | 256 | 0.0 | 0.0 | 0.00 | 0.28 | 0.01 | 100 | 1011.7 |
| 20260901033102 | 71 | 255 | 0.0 | 0.0 | 0.00 | 0.28 | 0.01 | 100 | 1011.8 |
| 20260901031528 | 71 | 254 | 0.0 | 0.0 | 0.00 | 0.28 | 0.01 | 100 | 1011.7 |
| 20260901030027 | 71 | 252 | 0.0 | 0.0 | 0.00 | 0.28 | 0.01 | 100 | 1011.6 |
| 20260901024504 | 71 | 220 | 0.0 | 1.0 | 0.00 | 0.28 | 0.01 | 100 | 1011.5 |
| 20260901023100 | 71 | 219 | 0.0 | 0.0 | 0.00 | 0.28 | 0.01 | 100 | 1011.7 |
| 20260901021603 | 71 | 219 | 0.0 | 0.0 | 0.00 | 0.28 | 0.01 | 100 | 1011.2 |
| 20260901020051 | 72 | 219 | 0.0 | 0.0 | 0.00 | 0.28 | 0.01 | 100 | 1011.1 |
| 20260901014547 | 72 | 219 | 0.0 | 0.0 | 0.00 | 0.28 | 0.01 | 100 | 1011.5 |
| 20260901013052 | 72 | 219 | 0.0 | 0.0 | 0.00 | 0.28 | 0.01 | 100 | 1011.4 |
| 20260901011603 | 73 | 219 | 0.0 | 0.0 | 0.00 | 0.28 | 0.01 | 100 | 1011.4 |
| 20260901010034 | 73 | 223 | 0.0 | 0.0 | 0.00 | 0.28 | 0.01 | 100 | 1011.1 |
| 20260901004512 | 74 | 223 | 0.0 | 0.0 | 0.00 | 0.28 | 0.01 | 100 | 1010.9 |
| 20260901003015 | 75 | 223 | 0.0 | 0.0 | 0.00 | 0.28 | 0.01 | 100 | 1010.9 |
| 20260901001552 | 76 | 223 | 0.0 | 0.0 | 0.00 | 0.28 | 0.01 | 100 | 1010.7 |
| 20260901000047 | 76 | 223 | 0.0 | 0.0 | 0.00 | 0.28 | 0.01 | 100 | 1010.6 |
| 20260831234545 | 76 | 223 | 0.0 | 0.0 | 0.00 | 0.28 | 0.01 | 100 | 1010.9 |
| 20260831233038 | 76 | 244 | 0.0 | 0.0 | 0.00 | 0.28 | 0.01 | 100 | 1010.9 |
| 20260831231534 | 77 | 242 | 0.0 | 0.0 | 0.00 | 0.28 | 0.01 | 100 | 1011.0 |
| 20260831230031 | 77 | 284 | 0.0 | 0.0 | 0.00 | 0.28 | 0.01 | 100 | 1010.6 |
| 20260831224525 | 78 | 306 | 0.0 | 0.0 | 0.00 | 0.28 | 0.01 | 100 | 1010.5 |
| 20260831223028 | 78 | 15 | 0.0 | 0.0 | 0.00 | 0.28 | 0.01 | 100 | 1010.3 |
| 20260831221505 | 78 | 15 | 0.0 | 0.0 | 0.00 | 0.28 | 0.01 | 100 | 1010.3 |
| 20260831220112 | 79 | 15 | 0.0 | 0.0 | 0.00 | 0.28 | 0.01 | 100 | 1010.2 |
| 20260831214608 | 79 | 15 | 0.0 | 2.0 | 0.00 | 0.28 | 0.01 | 100 | 1010.4 |
| 20260831213051 | 79 | 30 | 0.0 | 3.0 | 0.00 | 0.28 | 0.01 | 100 | 1010.4 |
| 20260831211549 | 80 | 115 | 0.0 | 2.0 | 0.00 | 0.28 | 0.01 | 100 | 1010.4 |
| 20260831210043 | 81 | 121 | 0.0 | 4.0 | 0.00 | 0.28 | 0.01 | 100 | 1010.3 |
| 20260831204539 | 82 | 142 | 0.0 | 2.0 | 0.00 | 0.28 | 0.01 | 100 | 1010.1 |
| 20260831203044 | 82 | 46 | 0.0 | 4.0 | 0.00 | 0.28 | 0.01 | 100 | 1010.1 |
| 20260831201613 | 82 | 90 | 0.0 | 3.0 | 0.00 | 0.28 | 0.01 | 100 | 1010.2 |
| 20260831200008 | 82 | 324 | 0.0 | 2.0 | 0.00 | 0.28 | 0.01 | 100 | 1010.5 |
| 20260831194606 | 81 | 232 | 1.0 | 4.0 | 0.00 | 0.28 | 0.01 | 100 | 1010.9 |
| 20260831193048 | 81 | 85 | 0.0 | 2.0 | 0.00 | 0.28 | 0.01 | 100 | 1011.0 |
| 20260831191544 | 81 | 204 | 1.0 | 5.0 | 0.00 | 0.28 | 0.01 | 100 | 1011.2 |
| 20260831190053 | 80 | 237 | 0.0 | 4.0 | 0.00 | 0.28 | 0.01 | 100 | 1011.1 |
| 20260831184535 | 80 | 107 | 1.0 | 6.0 | 0.00 | 0.28 | 0.01 | 100 | 1011.4 |
| 20260831183030 | 80 | 202 | 0.0 | 5.0 | 0.00 | 0.28 | 0.01 | 100 | 1011.3 |
| 20260831181526 | 80 | 51 | 1.0 | 5.0 | 0.00 | 0.28 | 0.01 | 100 | 1011.2 |
| 20260831180022 | 81 | 325 | 0.0 | 4.0 | 0.00 | 0.28 | 0.01 | 100 | 1011.1 |
| 20260831174600 | 80 | 121 | 1.0 | 7.0 | 0.00 | 0.28 | 0.01 | 100 | 1011.4 |
| 20260831173058 | 80 | 121 | 1.0 | 5.0 | 0.00 | 0.28 | 0.01 | 100 | 1011.4 |
| 20260831171534 | 79 | 257 | 0.0 | 5.0 | 0.00 | 0.28 | 0.01 | 100 | 1011.5 |
| 20260831170029 | 78 | 142 | 0.0 | 7.0 | 0.00 | 0.28 | 0.01 | 100 | 1011.5 |
| 20260831164518 | 77 | 152 | 0.0 | 3.0 | 0.00 | 0.28 | 0.01 | 100 | 1011.9 |
| 20260831163004 | 76 | 106 | 1.0 | 8.0 | 0.00 | 0.28 | 0.01 | 100 | 1011.8 |
| 20260831161546 | 76 | 345 | 0.0 | 7.0 | 0.00 | 0.28 | 0.01 | 100 | 1011.9 |
| 20260831160038 | 75 | 182 | 0.0 | 4.0 | 0.00 | 0.28 | 0.01 | 100 | 1012.0 |
| 20260831154521 | 74 | 227 | 0.0 | 4.0 | 0.00 | 0.28 | 0.01 | 100 | 1012.3 |
| 20260831153016 | 74 | 223 | 1.0 | 6.0 | 0.00 | 0.28 | 0.01 | 100 | 1011.9 |
| 20260831151514 | 73 | 126 | 0.0 | 6.0 | 0.00 | 0.28 | 0.01 | 100 | 1012.2 |
| 20260831150009 | 72 | 128 | 0.0 | 5.0 | 0.00 | 0.28 | 0.01 | 100 | 1012.3 |
| 20260831144507 | 71 | 224 | 0.0 | 2.0 | 0.01 | 0.28 | 0.01 | 100 | 1012.5 |
| 20260831143101 | 71 | 117 | 0.0 | 0.0 | 0.03 | 0.28 | 0.01 | 100 | 1012.8 |
| 20260831141557 | 70 | 248 | 0.0 | 6.0 | 0.03 | 0.28 | 0.01 | 100 | 1012.7 |
| 20260831140052 | 70 | 117 | 0.0 | 3.0 | 0.03 | 0.28 | 0.01 | 100 | 1013.1 |
| 20260831134551 | 70 | 119 | 0.0 | 1.0 | 0.04 | 0.28 | 0.28 | 100 | 1013.2 |
| 20260831133032 | 70 | 118 | 0.0 | 3.0 | 0.02 | 0.26 | 0.26 | 100 | 1013.1 |
| 20260831131521 | 69 | 219 | 0.0 | 1.0 | 0.04 | 0.26 | 0.26 | 100 | 1013.4 |
| 20260831130100 | 69 | 225 | 0.0 | 8.0 | 0.06 | 0.26 | 0.26 | 100 | 1013.2 |
| 20260831124555 | 69 | 114 | 0.0 | 0.0 | 0.05 | 0.24 | 0.24 | 100 | 1013.3 |
| 20260831123032 | 69 | 94 | 0.0 | 0.0 | 0.05 | 0.24 | 0.24 | 100 | 1013.2 |
| 20260831121528 | 69 | 120 | 0.0 | 0.0 | 0.03 | 0.22 | 0.22 | 100 | 1013.5 |
| 20260831120007 | 69 | 93 | 0.0 | 0.0 | 0.01 | 0.20 | 0.20 | 100 | 1013.3 |
| 20260831114502 | 68 | 80 | 0.0 | 0.0 | 0.00 | 0.19 | 0.19 | 100 | 1013.1 |
| 20260831113044 | 68 | 180 | 0.0 | 0.0 | 0.05 | 0.19 | 0.19 | 100 | 1012.6 |
| 20260831111536 | 68 | 58 | 0.0 | 0.0 | 0.05 | 0.19 | 0.19 | 100 | 1012.1 |